Weather WX

World > North America > United States > Ohio

Sidney, Ohio Regional Weather

Lat: 40.29N, Lon: 84.16W
Wx Zone: OHZ043
Warning FLW WEATHER ALERT - (More Info. Click Here) Warning
Feedback

Sidney, OH Regional Weather

Expires:201906182200;;698415
ASUS41 KCLE 182102
RWRCLE
OHIO REGIONAL WEATHER ROUNDUP
NATIONAL WEATHER SERVICE CLEVELAND, OH
500 PM EDT TUE JUN 18 2019

NOTE: "FAIR" INDICATES FEW OR NO CLOUDS BELOW 12,000 FEET WITH NO
SIGNIFICANT WEATHER AND/OR OBSTRUCTIONS TO VISIBILITY.


OHZ001>008-015>018-024>027-034-035-043-044-182200-
   NORTHWEST OHIO
  
CITY           SKY/WX    TMP DP  RH WIND       PRES   REMARKS
DEFIANCE       FAIR      79  61  53 N7        29.89F                  
FINDLAY        PTSUNNY   79  61  53 NE6       29.89F                  
TOLEDO EXPRESS FAIR      81  60  48 NW6       29.89F                  
TOLEDO EXEC    FAIR      77  61  57 SE6       29.90F                  
LIMA           PTSUNNY   79  64  60 N9        29.89F                  
$$


SKY/WX - Weather  TMP - Temperature  DP - Dew Point  RH - Relative Humidity
WIND - Wind Direction/Speed PRES - Barometric Pressure VSB - Visibility
WCI - Wind Chill Index E13G22 Wind - East Wind 13 mph/Gusts of 22 mph